Location: Unspecified
(43.4680°N, 87.1740°E)
Time: 21:47:54
(UTC+00:00)

Ariane Rocket - Pass Details

Date: 17 April 2021
Orbit: 760 x 770 km, 98.7° (Epoch: 11 May)

Event Time Altitude Azimuth Distance (km) Brightness Sun altitude
Exits shadow 14:04:04 - 156° (SSE) 2,341 5.0 -12.2°
Reaches altitude 10° 14:04:11 10° 156° (SSE) 2,290 5.0 -12.2°
Maximum altitude 14:09:12 70° 73° (ENE) 811 3.0 -13.0°
Drops below altitude 10° 14:14:14 10° 351° (N) 2,302 6.0 -13.8°
Sets 14:16:33 0° 349° (N) 3,231 6.9 -14.1°
